GW2741 Weather Reports


time (UTC)temp
C
wind
direction
speed
KPH
gust
KPH
rain 1hr
cm
rain 24hr
cm
rain mn
cm
humidity
%
barometer
mb
20260508231019 8 348 8.0 17.7 0.00 0.00 0.00 63 1021.3
20260508230119 8 327 6.4 14.5 0.00 0.00 0.00 63 1021.3
20260508225219 8 323 6.4 14.5 0.00 0.03 4.27 63 1021.3
20260508224319 8 334 6.4 12.9 0.00 0.03 4.27 63 1021.2
20260508223419 8 333 6.4 12.9 0.00 0.03 4.27 62 1021.2
20260508220719 8 312 6.4 9.7 0.00 0.03 4.27 62 1021.1
20260508215819 8 312 6.4 11.3 0.00 0.03 4.27 62 1020.8
20260508214919 8 333 6.4 12.9 0.00 0.03 4.27 62 1021.1
20260508214019 8 341 6.4 12.9 0.00 0.03 4.27 62 1020.8
20260508213119 8 306 6.4 12.9 0.00 0.03 4.27 62 1020.8
20260508212219 8 323 4.8 11.3 0.00 0.03 4.27 62 1020.9
20260508211319 8 346 6.4 12.9 0.00 0.03 4.27 62 1020.4
20260508210419 8 326 6.4 12.9 0.00 0.03 4.27 61 1020.6
20260508205519 8 344 4.8 12.9 0.00 0.03 4.27 61 1020.4
20260508201919 8 335 4.8 11.3 0.00 0.03 4.27 59 1020.0
20260508201019 8 320 4.8 11.3 0.00 0.03 4.27 58 1020.2
20260508200119 8 331 6.4 16.1 0.00 0.03 4.27 56 1019.8
20260508195219 8 342 4.8 11.3 0.00 0.03 4.27 55 1019.9
20260508193419 9 336 8.0 12.9 0.00 0.03 4.27 52 1019.6
20260508192519 10 315 9.7 17.7 0.00 0.03 4.27 52 1019.4
20260508190719 10 337 8.0 12.9 0.00 0.03 4.27 54 1019.3
20260508185819 10 320 8.0 16.1 0.00 0.03 4.27 55 1019.2
20260508184919 10 322 9.7 16.1 0.00 0.03 4.27 55 1019.1
20260508184019 10 341 8.0 14.5 0.00 0.03 4.27 55 1019.2
20260508183119 10 324 11.3 20.9 0.00 0.03 4.27 54 1019.2
20260508182219 10 335 9.7 16.1 0.00 0.03 4.27 53 1019.0
20260508181319 11 326 9.7 17.7 0.00 0.03 4.27 52 1018.8
20260508180420 11 337 11.3 17.7 0.00 0.03 4.27 50 1018.8
20260508175519 11 320 8.0 12.9 0.00 0.03 4.27 50 1018.7
20260508174619 11 341 9.7 14.5 0.00 0.03 4.27 50 1018.8
20260508173719 11 325 9.7 14.5 0.00 0.03 4.27 49 1018.7
20260508172819 12 329 8.0 14.5 0.00 0.03 4.27 49 1018.4
20260508171919 12 328 6.4 12.9 0.00 0.03 4.27 50 1018.5
20260508171019 12 337 8.0 12.9 0.00 0.03 4.27 51 1018.4
20260508170119 12 330 8.0 17.7 0.00 0.03 4.27 51 1018.3
20260508165219 11 324 9.7 17.7 0.00 0.03 4.27 51 1018.1
20260508162519 12 320 9.7 19.3 0.00 0.03 4.27 51 1017.9
20260508161620 12 323 9.7 17.7 0.00 0.03 4.27 51 1017.8
20260508155819 12 305 8.0 12.9 0.00 0.03 4.27 51 1017.6
20260508154920 12 328 9.7 14.5 0.00 0.03 4.27 50 1017.7
20260508154020 12 330 8.0 14.5 0.00 0.03 4.27 50 1017.5
20260508153120 12 333 8.0 14.5 0.00 0.03 4.27 50 1017.6
20260508152219 12 330 9.7 14.5 0.00 0.03 4.27 47 1017.7
20260508151319 12 332 9.7 14.5 0.00 0.03 4.27 48 1017.5
20260508150419 12 323 9.7 16.1 0.00 0.03 4.27 50 1017.5
20260508144619 12 337 8.0 14.5 0.00 0.03 4.27 50 1017.5
20260508143720 12 321 8.0 12.9 0.00 0.03 4.27 49 1017.4
20260508142819 12 335 9.7 12.9 0.00 0.03 4.27 47 1017.3
20260508141020 12 321 8.0 14.5 0.00 0.03 4.27 45 1017.0
20260508135220 13 337 8.0 14.5 0.00 0.03 4.27 46 1017.0
20260508134320 12 327 9.7 14.5 0.00 0.03 4.27 46 1016.7
20260508133420 12 327 8.0 12.9 0.00 0.03 4.27 45 1016.9
20260508132520 12 320 8.0 14.5 0.00 0.03 4.27 45 1016.9
20260508131620 12 312 8.0 12.9 0.00 0.03 4.27 45 1016.7
20260508125819 12 323 8.0 12.9 0.00 0.03 4.27 48 1016.6
20260508124920 12 320 8.0 12.9 0.00 0.03 4.27 48 1016.6
20260508124019 12 321 8.0 12.9 0.00 0.03 4.27 47 1016.5
20260508123120 12 329 6.4 12.9 0.00 0.03 4.27 46 1016.5
20260508122220 12 331 6.4 11.3 0.00 0.03 4.27 46 1016.3
20260508121320 13 313 4.8 11.3 0.00 0.03 4.27 48 1016.3
20260508120420 12 305 4.8 8.0 0.00 0.03 4.27 49 1016.4
20260508115520 12 292 4.8 8.0 0.00 0.03 4.27 47 1016.4
20260508114620 12 302 4.8 9.7 0.00 0.03 4.27 49 1016.3
20260508113720 12 278 4.8 8.0 0.00 0.03 4.27 49 1016.5
20260508111920 12 331 6.4 9.7 0.00 0.03 4.27 50 1015.9
20260508111020 12 332 4.8 9.7 0.00 0.03 4.27 51 1015.9
20260508110120 13 339 6.4 11.3 0.00 0.03 4.27 50 1015.9
20260508105221 13 330 6.4 12.9 0.00 0.03 4.27 50 1015.6
20260508104320 13 315 6.4 11.3 0.00 0.03 4.27 50 1015.5
20260508103420 13 297 4.8 9.7 0.00 0.03 4.27 51 1015.6
20260508102520 13 313 6.4 8.0 0.00 0.03 4.27 51 1015.5
20260508101621 12 318 6.4 11.3 0.00 0.03 4.27 51 1015.7
20260508100720 12 304 4.8 8.0 0.00 0.03 4.27 52 1015.4
20260508094920 12 292 6.4 11.3 0.00 0.03 4.27 49 1015.5
20260508094020 12 296 6.4 9.7 0.00 0.03 4.27 50 1015.2
20260508093120 12 292 6.4 9.7 0.00 0.03 4.27 51 1015.0
20260508092220 13 301 4.8 6.4 0.00 0.03 4.27 53 1014.9
20260508091320 13 291 4.8 8.0 0.00 0.03 4.27 55 1014.9
20260508085520 13 296 4.8 9.7 0.00 0.03 4.27 60 1014.8
20260508084620 12 284 6.4 9.7 0.00 0.03 4.27 61 1014.6
20260508083721 12 290 4.8 11.3 0.00 0.03 4.27 65 1014.6
20260508082820 11 282 6.4 11.3 0.00 0.03 4.27 67 1014.6
20260508081920 11 309 6.4 12.9 0.00 0.03 4.27 69 1014.6
20260508081020 11 294 6.4 12.9 0.00 0.03 4.27 70 1014.6
20260508080120 11 292 6.4 12.9 0.00 0.03 4.27 72 1014.5
20260508075220 11 290 4.8 12.9 0.00 0.03 4.27 74 1014.3
20260508074320 11 293 4.8 9.7 0.00 0.03 4.27 76 1014.3
20260508073420 11 289 4.8 9.7 0.00 0.03 4.27 77 1014.1
20260508072520 11 276 3.2 6.4 0.00 0.03 4.27 79 1014.1
20260508070720 10 267 3.2 8.0 0.00 0.03 4.27 80 1013.7
20260508064920 10 210 1.6 6.4 0.00 0.03 4.27 80 1013.4
20260508064020 10 234 1.6 4.8 0.00 0.03 4.27 80 1013.4
20260508063120 9 218 1.6 3.2 0.00 0.03 4.27 80 1013.5
20260508062220 9 160 1.6 3.2 0.00 0.03 4.27 80 1013.2
20260508061320 8 124 0.0 3.2 0.00 0.03 4.27 80 1013.2